Location: Unspecified
(43.3830°N, 0.0000°E)
Time: 23:01:52
(UTC+00:00)

Transit 2A - Pass Details

Date: 23 June 2019
Orbit: 594 x 964 km, 66.7° (Epoch: 19 July)

Event Time Altitude Azimuth Distance (km) Brightness Sun altitude
Exits shadow 01:35:57 11° 261° (W) 2,612 8.4 -19.8°
Maximum altitude 01:41:00 28° 316° (NW) 1,721 8.0 -19.4°
Drops below altitude 10° 01:46:15 10° 14° (NNE) 2,636 10.0 -19.0°
Sets 01:49:08 0° 26° (NNE) 3,537 11.1 -18.8°
